sat.trackr.live / text

‹ back to catalog

FSI-SAT2

NORAD 68792 · 2026-088A

PAYLOAD ACTIVE UNKNOWN

§ Identity

Operator
Country
JPN
Launch date
2026-04-23
Launch site
RLLB
Launch vehicle
Mass (kg)
RCS (m²)

External: N2YO · Heavens-Above · Gunter

§ Orbital elements

Epoch: 2026-09-20T03:49:35.467392Z

Period
95.52 min
Inclination
97.5198°
Eccentricity
0.0015090
Mean motion
15.07472443 rev/d
Perigee alt
533.5 km
Apogee alt
554.4 km
Semi-major
6,922.1 km
B*
2.3591e-4
RAAN
50.1552°
Arg perigee
139.2268°
Mean anomaly
221.0092°
Rev number
2,259

§ Raw data

FSI-SAT21 68792U 26088A   26263.15943828  .00003524  00000+0  23591-3 0  99912 68792  97.5198  50.1552 0015090 139.2268 221.0092 15.07472443 22598

JSON: /api/v1/satellites/68792 · /tle

For live sub-satellite position, see the globe view (requires WebGL).

§ Visibility from observer

Set your observer location to see the next 7 days of passes ≥ 10°. The values pass through the URL so the page stays shareable.

No JS? Fill the form by hand. The geolocation button needs JavaScript.